Voltar ao catálogo

SL-8 R/B

AtivoLEO
NORAD 18096·ROCKET BODY·🇷🇺 Russia

Lançado Jun 9, 1987 de Plesetsk Cosmodrome

Loading…

Próximas Passagens (próximas 24 horas)

TLE

AtualizadoSource: Space-Track

Época: Sep 14, 2026, 08:55 UTC

1 18096U 87049B   26257.37209448  .00000139  00000-0  54397-4 0  9996
2 18096  74.0416 140.8972 0021945 205.4267 154.5810 14.38037139 56594

Acompanhe SL-8 R/B em tempo real com AllMySat

Download on the App Store